Flag for U.S.A. Weather past 2 weeks in Prescott, Arizona, U.S.A.

Now
71 °F

Sunny.


Feels Like: 74 °F
Forecast: 48 / 69 °F
Wind: 14 mph from Southwest

Location: Love Field

Current Time: Mar 31, 2015 at 6:28:44 PM

Latest Report: Mar 31, 2015 at 5:53 PM


Visibility: 10 mi

Pressure: 29.83 "Hg

Humidity: 18%

Dew point: 25 °F

Location of PrescottLocation

Historic Weather in Prescott — Graph

°F

Prescott temperature yesterday

Maximum temperature yesterday: 77 °F (at 12:53 PM)
Minimum temperature yesterday: 45 °F (at 5:53 AM)
Average temperature yesterday: 61 °F

Past Weeks' High & Low Weather Summary

 TemperatureHumidityPressure
High78 °F (Mar 27, 2:53 PM)96% (Mar 20, 7:53 AM)30.18 "Hg (Mar 20, 7:53 AM)
Low37 °F (Mar 20, 5:57 AM)8% (Mar 23, 2:53 PM)29.83 "Hg (Mar 31, 4:53 PM)
Average56 °F36%30.00 "Hg
* Reported Mar 16 4:53 PM — Mar 31 4:53 PM, Prescott, Weather by CustomWeather, © 2015

Note: Actual official high and low records may vary slightly from our data, if they occured in-between our weather recording intervals... More about our weather records

Advertising

Prescott weather history for previous 24 hours

 ConditionsComfort  
Time TempWeatherWind HumidityBarometerVisibility
4:53 PM
Tue, Mar 31
72 °FPassing clouds.15 mph17%29.83 "Hg10 mi
3:53 PM72 °FPassing clouds.15 mph19%29.86 "Hg10 mi
2:53 PM75 °FScattered clouds.20 mph18%29.86 "Hg10 mi
1:53 PM75 °FScattered clouds.23 mph18%29.90 "Hg10 mi
12:53 PM76 °FSunny.17 mph17%29.91 "Hg10 mi
11:53 AM75 °FSunny.12 mph18%29.93 "Hg10 mi
10:53 AM73 °FSunny.10 mph17%29.95 "Hg10 mi
9:53 AM70 °FSunny.3 mph21%29.97 "Hg10 mi
8:53 AM64 °FSunny.No wind25%29.97 "Hg10 mi
7:53 AM56 °FSunny.No wind32%29.97 "Hg10 mi
6:53 AM47 °FSunny.No wind48%29.98 "Hg10 mi
5:53 AM48 °FClear.9 mph41%29.94 "Hg10 mi
4:53 AM50 °FClear.12 mph39%29.93 "Hg10 mi
3:53 AM46 °FClear.9 mph50%29.94 "Hg10 mi
2:53 AM48 °FClear.5 mph46%29.95 "Hg10 mi
1:53 AM49 °FClear.8 mph44%29.97 "Hg10 mi
12:53 AM53 °FClear.No wind32%29.97 "Hg10 mi
11:53 PM
Mon, Mar 30
53 °FClear.9 mph35%29.97 "Hg10 mi
10:53 PM55 °FClear.8 mph31%29.97 "Hg10 mi
9:53 PM56 °FClear.5 mph29%29.97 "Hg10 mi
8:53 PM58 °FClear.8 mph27%29.99 "Hg10 mi
7:53 PM61 °FClear.5 mph22%29.98 "Hg10 mi
6:53 PM67 °FClear.7 mph15%29.96 "Hg10 mi
Weather by CustomWeather, © 2015

See weather overviewHow to use our weather pages